Location: Sternwarte auf dem Internationalen Platz Vogelsang IP
(50.5721°N, 6.4398°E)
Time: 20:54:50
(UTC+01:00)

AO-7 - Visible Passes

Search period start: 22 January 2026 00:00
Search period end: 01 February 2026 00:00
Orbit: 1439 x 1459 km, 102.0° (Epoch: 22 January)

Date Brightness Start Highest point End Pass type
(mag) Time Alt. Az. Time Alt. Az. Time Alt. Az.
22 Jan ? 05:52:56 10° NE 05:59:49 28° E 06:06:39 10° SSE visible
22 Jan ? 07:45:04 10° NNE 07:53:25 82° WNW 08:01:45 10° SSW visible
22 Jan ? 18:50:19 10° SSW 18:57:56 40° W 19:05:37 10° NNW visible
23 Jan ? 04:56:17 10° ENE 04:58:30 11° E 05:00:42 10° E visible
23 Jan ? 06:45:10 10° NNE 06:53:16 53° ESE 07:01:21 10° S visible
23 Jan ? 17:49:16 10° SSE 17:57:33 79° WSW 18:05:55 10° NNW visible
23 Jan ? 19:45:55 10° SW 19:51:37 20° W 19:57:22 10° NW visible
24 Jan ? 05:45:57 10° NE 05:52:33 25° E 05:59:06 10° SE visible
24 Jan ? 07:37:55 10° NNE 07:46:17 88° WNW 07:54:39 10° SSW visible
24 Jan ? 18:42:57 10° S 18:50:43 43° W 18:58:33 10° NNW visible
25 Jan ? 06:38:04 10° NNE 06:46:05 48° E 06:54:03 10° S visible
25 Jan ? 17:42:06 10° SSE 17:50:24 85° WSW 17:58:47 10° NNW visible
25 Jan ? 19:38:14 10° SW 19:44:20 22° W 19:50:28 10° NW visible
26 Jan ? 05:39:00 10° NE 05:45:17 23° E 05:51:30 10° SE visible
26 Jan ? 07:30:46 10° NNE 07:39:09 86° ESE 07:47:31 10° SSW visible
26 Jan ? 18:35:36 10° S 18:43:30 47° W 18:51:28 10° NNW visible
27 Jan ? 06:30:59 10° NNE 06:38:52 44° E 06:46:44 10° S visible
27 Jan ? 19:30:37 10° SW 19:37:03 24° W 19:43:32 10° NW visible
28 Jan ? 05:32:06 10° NE 05:38:00 21° E 05:43:52 10° SE visible
28 Jan ? 07:23:37 10° NNE 07:32:00 80° ESE 07:40:22 10° SSW visible
28 Jan ? 18:28:18 10° S 18:36:18 52° WSW 18:44:22 10° NNW visible
28 Jan ? 20:29:26 10° W 20:31:08 11° W 20:32:50 10° WNW visible
29 Jan ? 06:23:54 10° NNE 06:31:39 41° E 06:39:23 10° SSE visible
29 Jan ? 19:23:04 10° SSW 19:29:47 27° W 19:36:34 10° NW visible
30 Jan ? 05:25:14 10° NE 05:30:42 19° E 05:36:08 10° SE visible
30 Jan ? 07:16:29 10° NNE 07:24:51 75° ESE 07:33:12 10° SSW visible
30 Jan ? 18:21:01 10° S 18:29:06 56° WSW 18:37:16 10° NNW visible
30 Jan ? 20:20:42 10° WSW 20:23:47 12° W 20:26:52 10° WNW visible
31 Jan ? 06:16:50 10° NNE 06:24:26 37° E 06:32:00 10° SSE visible
31 Jan ? 19:15:32 10° SSW 19:22:31 30° W 19:29:34 10° NW visible
